Location: Darlington Observatory
(36.4817°N, 105.8156°W)
Time: 06:10:30
(UTC-06:00)

Daily predictions for brighter satellites

Satellite Brightness Start Highest point End
(mag) Time Altitude Azimuth Time Altitude Azimuth Time Altitude Azimuth
H-2A R/B 3.5 19:20:21 10° SW 19:24:00 35° SSE 19:38:47 10° E
Helios 1B rocket 4.2 19:43:57 10° ENE 19:45:54 13° E 19:47:52 10° ESE
Cosmos 1378 3.6 19:44:47 10° NNW 19:48:30 66° W 19:52:12 10° S
Lacrosse 4 Rocket 4.3 19:47:08 10° W 19:49:30 15° NW 19:51:51 10° NNW
Lacrosse 5 rocket 3.3 19:49:06 10° N 19:51:12 14° NNE 19:53:14 10° ENE
Spot 2 Rocket 4.1 19:48:36 10° SE 19:53:13 36° ENE 19:57:50 10° N
In-Cosmos 22 4.1 19:48:15 10° N 19:53:29 58° E 19:58:39 10° SSE
Cosmos 1544 3.3 19:50:54 10° S 19:54:24 49° E 19:57:57 10° NNE
Cosmos 1076 Rocket 4.2 19:54:09 10° NNE 19:57:58 31° ENE 20:01:45 10° SE
CZ-2D R/B 4.4 19:55:28 10° SE 19:58:41 26° ENE 20:01:55 10° NNE
Cosmos 1805 3.2 19:57:49 10° S 20:01:39 64° E 20:05:32 10° NNE
Cosmos 1867 3.5 19:56:36 10° SSW 20:02:02 80° ESE 20:07:31 10° NNE
Okean 3 Rocket 3.6 19:58:31 10° N 20:02:53 60° E 20:07:15 10° SSE
FENGYUN 3A 3.6 19:59:15 10° SSE 20:04:37 74° ENE 20:10:01 10° N
Abrixas 2.4 20:01:58 10° NW 20:04:47 60° NE 20:06:58 15° ESE
Helios 1A 4.3 20:02:55 11° ESE 20:05:57 21° ENE 20:09:07 10° NNE
Cosmos 1934 Rocket 4.4 20:00:25 10° SSW 20:06:30 67° W 20:12:33 10° N
ALOS 2.2 20:03:02 10° SSE 20:07:41 83° ENE 20:12:23 10° N
Tiangong 1 3.0 20:06:29 10° W 20:08:51 22° SW 20:11:11 10° SSE
Cosmos 1833 Rocket 3.2 20:06:17 10° N 20:11:34 40° ENE 20:16:33 11° SE
Envisat 4.4 20:08:43 13° ESE 20:11:35 20° ENE 20:15:12 10° NNE
RESURS DK-1 4.0 20:09:19 10° NW 20:13:07 37° WSW 20:16:55 10° S
Meteor 1-21 Rocket 4.5 20:09:54 10° N 20:15:37 53° ENE 20:21:22 10° SSE
Cosmos 1733 3.9 20:14:27 10° SSE 20:17:54 31° E 20:21:21 10° NNE
GPS 2-05 Rocket1 2.9 20:15:12 10° WSW 20:18:44 73° S 20:21:02 21° E
Cosmos 2278 Rocket 3.8 20:13:57 10° SW 20:19:12 39° WNW 20:24:31 10° N
Cosmos 1470 3.3 20:16:12 10° SSE 20:19:50 36° E 20:23:30 10° NNE
ATLAS 5 CENTAUR R/B 1.7 20:16:46 10° SSW 20:21:22 79° ESE 20:26:21 10° NE
SeaSat 1 2.4 20:16:35 10° SSE 20:21:29 76° ENE 20:26:25 10° NNW
Cosmos 1125 Rocket 3.6 20:16:25 10° SSW 20:21:36 79° WNW 20:26:50 10° NNE
Cosmos-2242 3.2 20:19:56 10° SSE 20:23:58 44° E 20:28:01 10° NNE
Cosmos 1766 Rocket 3.8 20:20:46 10° N 20:25:06 47° E 20:29:25 10° SSE
Geosat 4.1 20:21:50 10° NE 20:26:46 53° ESE 20:31:38 10° S
HJ-1C 4.1 20:23:27 10° S 20:26:46 56° W 20:30:09 10° NNW
Cosmos 1048 Rocket 3.9 20:21:52 10° NNW 20:26:57 64° ENE 20:32:00 10° SSE
OAO 2 Rocket 4.2 20:23:08 10° SW 20:27:45 34° SSE 20:30:17 22° ESE
GP-B 3.3 20:23:50 10° SSE 20:28:04 47° E 20:32:20 10° N
USA 186 2.4 20:29:38 23° NE 20:29:38 23° NE 20:30:53 10° NNE
CZ-3 Stage 3 4.1 19:35:49 10° WSW 20:31:49 70° S 20:37:50 21° ESE
H-2A R/B 2.9 20:29:20 10° S 20:33:13 75° W 20:37:09 10° NNW
CZ-4B DEB 4.0 20:33:45 23° ENE 20:33:45 23° ENE 20:35:53 10° NNE
Cosmos 1340 Rocket 3.3 20:33:17 10° N 20:37:01 37° ENE 20:38:09 30° ESE
Cosmos 2297 4.3 20:31:49 10° SSW 20:37:27 62° WNW 20:43:09 10° NNE
Resurs 01 Rocket 1.8 20:33:17 10° S 20:37:40 73° WSW 20:42:06 10° NNW
Cosmos 2016 Rocket 4.4 20:33:40 10° SSE 20:39:22 39° E 20:45:01 10° NNE
ISS -2.5 20:39:38 10° WSW 20:42:42 38° NW 20:45:27 12° NNE
Meteor 1-29 2.9 20:45:32 10° NNE 20:49:00 58° ESE 20:50:30 30° S
Cosmos 2082 Rocket 2.2 20:46:21 10° NNW 20:52:03 81° WSW 20:56:37 16° SSE
SAR-Lupe-4 3.4 20:50:51 35° SSE 20:52:15 82° ENE 20:55:51 10° N
Cosmos 1743 Rocket 3.8 20:51:57 10° N 20:56:16 48° E 20:56:52 45° ESE
Cosmos 1500 Rocket 4.3 20:53:14 10° NNE 20:56:34 32° ENE 20:56:34 32° ENE
H-II Stage 2 3.2 20:55:40 10° SW 20:56:26 16° SSW 20:56:26 16° SSW
Cosmos 2100 Rocket 4.0 20:51:55 10° S 20:58:14 89° E 21:04:38 10° N
COSMOS 2487 3.3 20:55:21 10° NNW 20:58:49 49° WSW 21:00:44 23° S
Cosmos 1271 Rocket 3.2 20:54:56 10° SSW 20:58:54 65° W 21:02:55 10° N
Meteor 1-16 Rocket 4.4 20:56:00 10° S 21:01:40 55° E 21:07:26 10° NNE
Cosmos 1674 3.7 21:05:01 10° NNW 21:08:39 46° W 21:11:14 18° SSW
Cosmos 2251 Rocket 3.8 21:03:41 10° N 21:08:48 45° ENE 21:09:13 44° E
SAR-Lupe-1 4.4 21:10:23 52° SSW 21:10:59 64° WSW 21:14:33 10° NNW
BREEZE-M DEB (TANK) 3.5 21:10:03 10° WSW 21:13:29 67° NNW 21:25:06 10° ENE
Tsikada Rocket 4.4 21:07:57 10° N 21:13:47 41° ENE 21:14:02 40° E
Aurora 2 Rocket 4.4 21:08:51 10° WSW 21:14:45 27° S 21:15:38 26° S
Cosmos 1939 Rocket 2.9 21:18:51 73° NNE 21:18:51 73° NNE 21:22:43 10° N
Cosmos 2151 4.3 21:16:17 10° N 21:18:38 28° NNE 21:18:38 28° NNE
SPOT 5 4.5 21:22:09 24° NE 21:22:09 24° NE 21:25:08 10° NNE
Helios 1B rocket 3.7 21:17:30 10° N 21:21:23 41° WNW 21:25:15 10° SW
Cosmos 1802 Rocket 4.1 21:16:02 10° SSW 21:22:08 75° W 21:28:20 10° N
USA 215 3.1 21:17:09 10° NE 21:23:41 75° SE 21:30:12 10° SW
SJ-11-01 4.3 21:26:56 63° SSW 21:27:38 78° WSW 21:32:23 10° NNW
Cosmos 1842 Rocket 3.7 21:27:30 63° SW 21:28:04 74° W 21:32:29 10° N
Lacrosse 5 rocket 2.1 21:27:04 10° NW 21:29:53 46° NW 21:29:53 46° NW
Cosmos 494 Rocket 3.9 21:34:18 10° NNW 21:39:06 79° NNW 21:39:06 79° NNW
Cosmos 2369 Rocket 3.9 21:43:24 21° NNE 21:43:24 21° NNE 21:45:09 10° NNE
Envisat 4.0 21:48:55 36° SW 21:50:14 43° W 21:55:04 10° NNW
DASH 4.4 21:50:17 10° W 21:56:26 29° SW 21:56:26 29° SW
ERS-1 Rocket 3.7 22:03:15 51° NW 22:03:15 51° NW 22:07:12 10° NNW
H-2A R/B 4.0 22:11:38 21° NNE 22:11:38 21° NNE 22:13:27 10° N
